�N����,����,�~����,�C��,���x,�C��,����,���ϕ���,�ő�u�ԕ���,�ő厞����,���˗�,�I�_���x,�n�����x,�ő啗���N��,DTYPE
"18/12/18","00:10",0.0,4.4,94.5,1007.8,316.6,1.5,2.5,326.2,0.00,3.6,8.5,"00:09:12",1
"18/12/18","00:20",0.0,4.7,94.3,1007.8,297.8,1.6,3.1,291.1,0.00,3.9,8.5,"00:10:16",1
"18/12/18","00:30",0.0,4.5,94.5,1007.8,319.9,1.7,2.4,321.4,0.00,3.7,8.4,"00:21:28",1
"18/12/18","00:40",0.0,4.3,94.1,1007.8,323.6,1.3,1.9,326.9,0.00,3.5,8.2,"00:30:56",1
"18/12/18","00:50",0.0,3.7,94.7,1007.6,284.9,0.2,0.4,284.9,0.00,3.0,8.4,"00:41:28",1
"18/12/18","01:00",0.0,3.7,95.4,1007.8,351.2,2.3,2.5,350.1,0.00,3.1,8.3,"00:56:16",1
"18/12/18","01:10",0.0,3.5,95.7,1007.8,319.4,1.2,1.2,320.2,0.00,2.9,8.2,"01:06:42",1
"18/12/18","01:20",0.0,3.4,96.2,1007.6,186.3,0.3,0.5,305.9,0.00,2.9,8.2,"01:18:58",1
"18/12/18","01:30",0.0,3.6,96.2,1008.1,327.1,1.3,1.9,338.8,0.00,3.1,8.2,"01:26:58",1
"18/12/18","01:40",0.0,3.6,96.7,1008.1,312.8,0.7,1.2,330.4,0.00,3.2,8.2,"01:37:06",1
"18/12/18","01:50",0.0,3.6,96.7,1008.3,316.8,0.7,1.7,305.4,0.00,3.2,8.1,"01:47:24",1
"18/12/18","02:00",0.0,3.7,97.2,1008.1,293.7,1.2,1.7,298.9,0.00,3.3,8.2,"01:52:16",1
"18/12/18","02:10",0.0,4.3,96.5,1008.1,291.6,2.1,3.5,298.3,0.00,3.8,8.0,"02:06:26",1
"18/12/18","02:20",0.0,4.0,95.5,1008.1,296.6,1.5,2.0,297.4,0.00,3.4,7.9,"02:13:50",1
"18/12/18","02:30",0.0,4.0,97.0,1008.3,297.4,1.5,1.9,273.9,0.00,3.6,8.1,"02:26:14",1
"18/12/18","02:40",0.0,3.6,96.0,1008.6,327.1,1.0,1.8,323.8,0.00,3.1,8.0,"02:32:14",1
"18/12/18","02:50",0.0,3.4,96.6,1008.3,314.9,1.3,2.0,321.9,0.00,3.0,7.9,"02:46:38",1
"18/12/18","03:00",0.0,3.4,97.1,1008.6,281.0,0.7,1.7,300.4,0.00,3.0,7.8,"02:59:00",1
"18/12/18","03:10",0.0,3.8,96.7,1008.6,296.3,1.0,2.4,302.7,0.00,3.4,7.8,"03:03:20",1
"18/12/18","03:20",0.0,3.7,96.6,1008.8,287.2,0.6,1.7,250.4,0.00,3.3,7.7,"03:16:54",1
"18/12/18","03:30",0.0,3.5,96.2,1008.8,303.9,1.3,2.1,334.1,0.00,3.0,7.7,"03:20:50",1
"18/12/18","03:40",0.0,3.5,96.8,1009.0,309.6,1.5,1.8,320.7,0.00,3.1,7.8,"03:39:08",1
"18/12/18","03:50",0.0,3.3,96.7,1009.3,318.1,1.5,2.2,343.0,0.00,2.9,7.5,"03:40:30",1
"18/12/18","04:00",0.0,3.3,96.7,1009.0,337.4,0.8,1.6,327.7,0.00,2.9,7.8,"03:52:34",1
"18/12/18","04:10",0.0,3.3,97.1,1009.0,211.5,0.6,1.8,306.3,0.00,2.9,7.7,"04:09:56",1
"18/12/18","04:20",0.0,3.3,97.0,1009.0,322.2,1.3,1.7,357.1,0.00,2.9,7.8,"04:11:06",1
"18/12/18","04:30",0.0,3.4,97.9,1009.0,290.0,1.6,1.8,285.0,0.00,3.1,7.7,"04:29:36",1
"18/12/18","04:40",0.0,3.9,97.1,1009.0,296.2,2.0,4.4,332.9,0.00,3.5,7.7,"04:39:12",1
"18/12/18","04:50",0.0,4.3,96.6,1009.3,301.7,2.2,4.0,327.3,0.00,3.8,7.5,"04:44:38",1
"18/12/18","05:00",0.0,4.6,96.1,1009.3,284.4,2.3,3.9,276.2,0.00,4.1,7.7,"04:52:00",1
"18/12/18","05:10",0.0,4.5,95.5,1009.5,299.4,2.6,4.9,290.1,0.00,3.9,7.6,"05:06:26",1
"18/12/18","05:20",0.0,4.6,94.9,1009.7,302.8,2.6,8.5,336.0,0.00,3.9,7.5,"05:10:40",1
"18/12/18","05:30",0.0,4.6,94.3,1009.7,282.7,1.7,2.8,274.6,0.00,3.8,7.6,"05:21:06",1
"18/12/18","05:40",0.0,4.6,93.4,1010.2,286.4,2.1,3.3,312.2,0.00,3.7,7.8,"05:39:40",1
"18/12/18","05:50",0.0,4.8,92.6,1010.0,295.3,2.7,5.8,326.3,0.00,3.7,7.5,"05:44:08",1
"18/12/18","06:00",0.0,5.0,91.8,1010.2,296.1,3.2,5.8,310.1,0.00,3.8,7.6,"05:58:32",1
"18/12/18","06:10",0.0,5.1,90.8,1010.7,288.2,3.0,4.8,302.4,0.00,3.8,7.7,"06:04:48",1
"18/12/18","06:20",0.0,5.0,90.5,1011.2,286.2,2.7,5.0,302.3,0.00,3.6,7.5,"06:15:52",1
"18/12/18","06:30",0.0,4.9,90.3,1011.2,280.0,2.3,3.6,328.3,0.00,3.5,7.5,"06:21:52",1
"18/12/18","06:40",0.0,4.8,90.2,1010.9,280.5,2.6,4.9,317.7,0.00,3.4,7.6,"06:36:48",1
"18/12/18","06:50",0.0,4.9,90.0,1011.2,282.9,2.3,5.2,319.9,0.00,3.4,7.4,"06:46:00",1
"18/12/18","07:00",0.0,4.8,89.7,1011.4,279.9,1.8,3.1,314.0,0.00,3.3,7.6,"06:56:16",1
"18/12/18","07:10",0.0,4.8,89.4,1011.2,275.9,1.7,2.7,251.8,0.00,3.2,7.5,"07:07:20",1
"18/12/18","07:20",0.0,4.8,89.1,1011.4,268.9,1.8,2.7,300.6,0.00,3.2,7.7,"07:15:04",1
"18/12/18","07:30",0.0,4.8,88.9,1011.9,273.0,2.0,3.7,237.9,0.00,3.2,7.7,"07:29:20",1
"18/12/18","07:40",0.0,4.8,88.8,1011.9,238.8,1.5,3.4,236.0,0.00,3.2,7.4,"07:31:20",1
"18/12/18","07:50",0.0,4.8,89.1,1011.6,240.9,2.0,3.7,239.7,0.00,3.2,7.5,"07:49:20",1
"18/12/18","08:00",0.0,4.6,89.7,1011.6,249.0,2.0,3.5,244.2,0.00,3.1,7.5,"07:51:28",1
"18/12/18","08:10",0.0,4.7,90.1,1012.3,249.5,1.2,2.5,216.9,0.02,3.3,7.5,"08:02:40",1
"18/12/18","08:20",0.0,4.8,90.4,1012.6,281.1,1.0,1.4,301.9,0.02,3.4,7.6,"08:11:52",1
"18/12/18","08:30",0.0,4.9,90.3,1012.3,273.4,1.3,2.9,316.4,0.00,3.5,7.5,"08:28:24",1
"18/12/18","08:40",0.0,5.0,90.6,1012.8,264.6,1.6,3.5,273.8,0.02,3.6,7.5,"08:39:20",1
"18/12/18","08:50",0.0,5.2,90.1,1012.8,255.7,1.8,3.2,242.4,0.02,3.8,7.5,"08:43:12",1
"18/12/18","09:00",0.0,5.3,90.0,1013.0,271.8,1.3,2.2,247.9,0.05,3.8,7.7,"08:50:16",1
"18/12/18","09:10",0.0,5.9,88.5,1013.0,258.8,1.0,1.7,252.9,0.15,4.2,7.7,"09:00:16",1
"18/12/18","09:20",0.0,6.2,86.4,1013.5,319.2,1.3,2.2,332.5,0.16,4.1,7.7,"09:12:16",1
"18/12/18","09:30",0.0,6.2,85.5,1013.8,323.3,1.5,2.4,313.0,0.17,4.0,8.0,"09:22:56",1
"18/12/18","09:40",0.0,6.5,84.4,1014.0,317.6,1.1,2.5,1.1,0.18,4.1,7.9,"09:32:24",1
"18/12/18","09:50",0.0,7.2,82.4,1014.2,284.6,2.1,5.5,327.0,0.22,4.4,8.4,"09:49:28",1
"18/12/18","10:00",0.0,7.1,80.9,1014.5,307.8,3.2,6.8,338.8,0.20,4.1,8.3,"09:50:32",1
"18/12/18","10:10",0.0,7.7,78.1,1014.0,263.3,2.0,4.1,337.0,0.26,4.2,8.4,"10:00:08",1
"18/12/18","10:20",0.0,8.0,76.4,1014.2,251.6,2.1,4.1,233.7,0.28,4.1,8.6,"10:15:52",1
"18/12/18","10:30",0.0,8.3,73.7,1014.2,257.2,1.8,3.4,231.4,0.33,3.9,8.7,"10:29:52",1
"18/12/18","10:40",0.0,8.1,73.9,1014.5,260.5,2.5,4.9,226.1,0.19,3.8,8.9,"10:30:08",1
"18/12/18","10:50",0.0,8.4,71.0,1014.0,279.6,1.8,3.3,306.1,0.33,3.5,9.0,"10:43:36",1
"18/12/18","11:00",0.0,9.1,70.5,1014.2,300.3,2.3,4.8,336.9,0.34,4.1,9.0,"10:57:52",1
"18/12/18","11:10",0.0,8.9,68.9,1013.8,286.3,2.3,4.7,334.5,0.35,3.5,9.1,"11:09:28",1
"18/12/18","11:20",0.0,9.4,67.7,1013.8,274.1,1.5,3.3,334.3,0.37,3.8,9.4,"11:10:48",1
"18/12/18","11:30",0.0,9.8,66.2,1013.3,284.8,2.1,5.0,322.4,0.39,3.8,9.6,"11:27:36",1
"18/12/18","11:40",0.0,9.3,63.4,1013.3,298.1,2.0,4.3,299.9,0.39,2.8,9.7,"11:36:00",1
"18/12/18","11:50",0.0,9.5,63.1,1013.0,299.5,1.8,4.1,321.3,0.39,2.9,9.7,"11:48:40",1
"18/12/18","12:00",0.0,9.7,63.0,1012.8,266.4,1.8,2.9,271.6,0.39,3.0,10.1,"11:54:24",1
"18/12/18","12:10",0.0,9.8,63.8,1012.6,266.6,1.7,3.5,331.1,0.40,3.3,10.2,"12:01:20",1
"18/12/18","12:20",0.0,9.7,61.4,1012.6,256.0,2.0,3.6,274.8,0.36,2.7,10.4,"12:12:48",1
"18/12/18","12:30",0.0,10.1,62.8,1012.6,277.7,1.8,4.2,242.5,0.38,3.4,10.4,"12:21:28",1
"18/12/18","12:40",0.0,10.1,62.9,1012.1,273.7,2.2,4.1,314.1,0.32,3.4,10.8,"12:33:12",1
"18/12/18","12:50",0.0,9.7,61.8,1012.1,294.7,2.3,7.2,340.5,0.30,2.8,10.7,"12:46:00",1
"18/12/18","13:00",0.0,10.2,60.9,1011.9,275.9,2.6,4.5,324.7,0.36,3.0,10.9,"12:57:04",1
"18/12/18","13:10",0.0,10.3,60.7,1011.9,281.1,2.3,3.7,308.5,0.31,3.1,11.0,"13:01:04",1
"18/12/18","13:20",0.0,10.6,59.6,1011.9,279.6,2.1,3.9,320.9,0.39,3.1,11.2,"13:16:24",1
"18/12/18","13:30",0.0,11.0,59.3,1011.4,306.4,2.5,5.6,341.8,0.41,3.4,11.1,"13:26:00",1
"18/12/18","13:40",0.0,10.7,58.6,1011.2,289.7,2.6,5.1,347.1,0.38,3.0,11.3,"13:32:00",1
"18/12/18","13:50",0.0,10.7,59.4,1011.4,262.5,2.2,4.4,239.8,0.17,3.2,11.2,"13:45:44",1
"18/12/18","14:00",0.0,10.2,60.7,1011.4,292.4,2.1,3.6,315.2,0.11,3.0,11.3,"13:56:16",1
"18/12/18","14:10",0.0,10.2,60.9,1011.4,279.3,2.0,3.2,288.2,0.08,3.0,11.3,"14:09:36",1
"18/12/18","14:20",0.0,10.4,61.3,1011.4,275.4,1.6,3.2,290.5,0.10,3.3,11.2,"14:10:32",1
"18/12/18","14:30",0.0,10.5,60.4,1011.4,289.1,1.8,3.4,316.9,0.11,3.2,11.1,"14:26:16",1
"18/12/18","14:40",0.0,11.2,57.0,1011.6,289.5,1.3,2.2,309.7,0.21,3.0,11.2,"14:31:12",1
"18/12/18","14:50",0.0,10.9,55.2,1011.9,280.3,2.2,5.4,256.8,0.13,2.3,11.3,"14:40:02",1
"18/12/18","15:00",0.0,11.0,56.4,1011.4,272.1,2.6,7.4,333.9,0.15,2.7,11.3,"14:52:56",1
"18/12/18","15:10",0.0,10.9,55.0,1011.6,262.9,2.3,5.8,307.3,0.19,2.3,11.2,"15:09:20",1
"18/12/18","15:20",0.0,11.0,55.8,1011.6,262.2,2.5,7.1,230.3,0.11,2.6,11.2,"15:12:56",1
"18/12/18","15:30",0.0,11.0,53.9,1011.9,276.2,2.7,5.0,316.2,0.14,2.1,11.3,"15:27:20",1
"18/12/18","15:40",0.0,10.6,53.4,1011.9,273.0,2.8,4.7,259.4,0.06,1.6,11.1,"15:38:40",1
"18/12/18","15:50",0.0,10.3,54.0,1011.6,280.1,3.0,5.4,311.6,0.04,1.4,11.1,"15:41:52",1
"18/12/18","16:00",0.0,10.0,54.4,1011.9,294.7,3.6,6.0,305.8,0.02,1.3,10.9,"15:54:16",1
"18/12/18","16:10",0.0,9.8,55.4,1011.9,303.7,4.0,6.5,316.9,0.02,1.3,11.0,"16:08:24",1
"18/12/18","16:20",0.0,9.9,55.5,1011.6,291.2,3.2,6.3,313.9,0.03,1.5,10.9,"16:13:28",1
"18/12/18","16:30",0.0,9.7,55.8,1011.9,288.4,2.8,4.8,321.5,0.01,1.3,10.7,"16:22:16",1
"18/12/18","16:40",0.0,9.4,56.5,1011.9,286.8,2.6,4.2,310.7,0.00,1.2,10.9,"16:39:20",1
"18/12/18","16:50",0.0,9.2,57.1,1011.9,295.6,2.7,4.2,305.0,0.00,1.2,10.6,"16:48:32",1
"18/12/18","17:00",0.0,9.0,58.1,1011.6,287.6,2.7,5.4,348.3,0.00,1.2,10.4,"16:59:52",1
"18/12/18","17:10",0.0,8.9,58.3,1012.1,296.1,3.0,5.1,292.3,0.00,1.2,10.4,"17:03:52",1
"18/12/18","17:20",0.0,8.5,59.4,1011.9,296.9,2.6,3.9,308.5,0.00,1.1,10.2,"17:16:40",1
"18/12/18","17:30",0.0,8.3,61.3,1011.9,293.5,2.2,4.4,290.6,0.00,1.3,10.1,"17:28:56",1
"18/12/18","17:40",0.0,8.0,61.5,1012.1,280.0,1.8,3.6,331.7,0.00,1.1,10.0,"17:31:20",1
"18/12/18","17:50",0.0,7.7,63.0,1012.1,300.9,2.0,3.3,328.4,0.00,1.1,9.8,"17:49:12",1
"18/12/18","18:00",0.0,7.3,65.5,1012.3,305.6,2.5,4.4,319.4,0.00,1.3,9.8,"17:55:36",1
"18/12/18","18:10",0.0,6.8,68.1,1012.3,315.6,2.8,4.9,313.5,0.00,1.4,9.7,"18:01:28",1
"18/12/18","18:20",0.0,6.5,70.3,1012.3,314.0,2.3,4.1,327.5,0.00,1.5,9.6,"18:17:20",1
"18/12/18","18:30",0.0,6.5,70.8,1012.3,326.2,2.6,3.9,320.6,0.00,1.6,9.5,"18:20:24",1
"18/12/18","18:40",0.0,5.9,71.8,1012.6,320.2,2.5,3.7,315.9,0.00,1.2,9.3,"18:34:48",1
"18/12/18","18:50",0.0,5.7,73.8,1012.6,308.8,2.0,2.9,330.4,0.00,1.4,9.5,"18:49:28",1
"18/12/18","19:00",0.0,5.3,74.9,1012.8,314.2,1.8,2.4,320.8,0.00,1.3,9.2,"18:55:12",1
"18/12/18","19:10",0.0,5.1,76.6,1013.0,316.7,2.0,2.8,325.0,0.00,1.4,9.0,"19:07:36",1
"18/12/18","19:20",0.0,4.5,77.5,1012.8,300.2,1.1,2.4,329.0,0.00,1.0,9.0,"19:10:16",1
"18/12/18","19:30",0.0,4.0,79.9,1012.8,305.6,1.3,2.6,322.5,0.00,0.9,9.1,"19:26:46",1
"18/12/18","19:40",0.0,3.5,82.2,1013.3,306.2,1.6,2.8,326.0,0.00,0.8,8.8,"19:35:38",1
"18/12/18","19:50",0.0,3.1,84.7,1012.8,305.3,1.8,3.3,317.1,0.00,0.8,8.7,"19:46:48",1
"18/12/18","20:00",0.0,3.0,86.7,1013.0,310.9,2.1,2.8,325.1,0.00,1.0,8.7,"19:51:04",1
"18/12/18","20:10",0.0,2.7,87.8,1012.8,292.7,1.2,2.2,324.6,0.00,0.9,8.5,"20:04:24",1
"18/12/18","20:20",0.0,2.5,88.4,1013.0,295.2,1.8,3.2,316.2,0.00,0.8,8.3,"20:16:16",1
"18/12/18","20:30",0.0,2.6,90.6,1013.0,303.3,1.8,2.8,308.4,0.00,1.3,8.5,"20:22:56",1
"18/12/18","20:40",0.0,2.7,90.4,1013.0,308.5,2.2,3.4,323.1,0.00,1.3,8.3,"20:31:52",1
"18/12/18","20:50",0.0,2.9,91.2,1012.8,294.2,2.1,3.3,321.2,0.00,1.6,8.3,"20:49:44",1
"18/12/18","21:00",0.0,2.8,90.8,1013.0,306.9,2.1,3.3,322.2,0.00,1.5,8.3,"20:58:00",1
"18/12/18","21:10",0.0,2.5,91.6,1012.8,300.3,1.7,2.5,316.8,0.00,1.3,8.1,"21:07:28",1
"18/12/18","21:20",0.0,2.2,91.9,1013.3,303.3,1.8,2.9,321.7,0.00,1.1,8.1,"21:19:20",1
"18/12/18","21:30",0.0,2.0,92.1,1013.0,299.7,1.8,3.3,325.1,0.00,0.9,8.2,"21:29:28",1
"18/12/18","21:40",0.0,1.8,92.6,1013.3,306.6,1.7,2.8,317.2,0.00,0.8,7.8,"21:33:36",1
"18/12/18","21:50",0.0,1.8,93.7,1013.3,296.4,1.7,2.6,321.2,0.00,0.9,7.9,"21:41:20",1
"18/12/18","22:00",0.0,1.8,93.6,1013.5,301.9,1.6,2.4,319.8,0.00,0.9,8.0,"21:56:00",1
"18/12/18","22:10",0.0,1.7,93.2,1013.0,305.5,1.3,2.8,327.1,0.00,0.8,7.7,"22:03:28",1
"18/12/18","22:20",0.0,1.4,94.3,1013.5,298.8,1.5,2.9,314.7,0.00,0.6,7.6,"22:18:40",1
"18/12/18","22:30",0.0,1.4,94.8,1013.3,310.6,1.6,2.9,330.6,0.00,0.7,7.9,"22:22:16",1
"18/12/18","22:40",0.0,1.4,95.1,1013.0,312.0,2.0,2.8,323.2,0.00,0.7,7.5,"22:30:08",1
"18/12/18","22:50",0.0,1.3,95.6,1013.3,306.9,1.2,2.1,310.5,0.00,0.7,7.6,"22:40:32",1
"18/12/18","23:00",0.0,1.2,95.6,1013.0,300.6,1.6,2.9,324.2,0.00,0.6,7.4,"22:56:48",1
"18/12/18","23:10",0.0,1.1,94.8,1013.5,305.0,1.7,2.5,316.4,0.00,0.4,7.4,"23:07:20",1
"18/12/18","23:20",0.0,1.1,95.6,1013.3,307.8,1.7,2.5,327.9,0.00,0.5,7.2,"23:12:56",1
"18/12/18","23:30",0.0,1.1,96.0,1013.5,305.8,1.5,2.4,326.8,0.00,0.6,7.4,"23:25:12",1
"18/12/18","23:40",0.0,0.9,96.4,1013.8,301.8,1.6,2.6,321.6,0.00,0.4,7.2,"23:35:36",1
"18/12/18","23:50",0.0,0.7,96.1,1013.5,305.7,1.3,1.9,319.1,0.00,0.2,7.3,"23:41:36",1
"18/12/18","24:00",0.0,0.6,96.9,1013.5,291.5,1.1,2.2,322.9,0.00,0.2,7.2,"23:59:36",1
